User: anonymous   Login
Location: Drayton Valley
(53.2170°N, 114.9830°W)
Time: 07:03:46
(UTC-06:00)
Language:

MOZ.5/SAFIR/RUBIN 5/SL-8 - Orbit

View from above orbital plane
View from above orbital plane
View from above satellite
View from above satellite

Ground track
Ground track

The orbit data is extracted from the following two-line orbital elements,

1 28898U 05043G   15123.48776103  .00000321  00000-0  76016-4 0  9995
2 28898 097.8439 300.4964 0021309 107.1310 253.2227 14.59875928506643
Epoch (UTC): 03 May 2015 11:42:22
Eccentricity: 0.0021309
inclination: 97.8439°
perigee height: 678 km
apogee height: 708 km
right ascension of ascending node: 300.4964°
argument of perigee: 107.1310°
revolutions per day: 14.59875928
mean anomaly at epoch: 253.2227°
orbit number at epoch: 50664

The dashed part of the orbit path shows where the satellite is in the earth's shadow,  

DLR